User: anonymous   Login
Location: Caltech
(34.1382°N, 118.1253°W)
Time: 10:29:09
(UTC-07:00)
Language:

SO-50 - Orbit

View from above orbital plane
View from above orbital plane
View from above satellite
View from above satellite

Ground track
Ground track

The orbit data is extracted from the following two-line orbital elements,

1 27607U 02058C   17114.92721005 +.00000268 +00000-0 +59597-4 0  9992
2 27607 064.5550 288.3120 0032099 123.2030 237.2157 14.75313626771120
Epoch (UTC): 24 April 2017 22:15:10
Eccentricity: 0.0032099
inclination: 64.5550°
perigee height: 621 km
apogee height: 667 km
right ascension of ascending node: 288.3120°
argument of perigee: 123.2030°
revolutions per day: 14.75313626
mean anomaly at epoch: 237.2157°
orbit number at epoch: 77112

The dashed part of the orbit path shows where the satellite is in the earth's shadow,  

DLR